Home > Weather > Rankweil > Past weeks

Flag for Austria Past Weather in Rankweil, Vorarlberg, Austria — Yesterday and Last 2 Weeks

Now
65 °F

Overcast.


Feels Like: 65 °F
Forecast: 57 / 76 °F
Wind: 1 mph from Northeast

Location: Feldkirch

Current Time: Jul 31, 2016 at 7:33:07 AM

Latest Report: Jul 31, 2016 at 7:00 AM


Visibility: 13 mi

Pressure: 29.91 "Hg

Humidity: 82%

Dew Point: 60 °F

Location of RankweilLocation

Past Weather in Rankweil — Graph

°F

Rankweil Temperature Yesterday

Maximum temperature yesterday: 84 °F (at 3:00 PM)
Minimum temperature yesterday: 63 °F (at 6:00 AM)
Average temperature yesterday: 73 °F

High & Low Weather Summary for the Past Weeks

 TemperatureHumidityPressure
High88 °F (Jul 20, 5:00 PM)98% (Jul 29, 6:00 AM)30.37 "Hg (Jul 29, 6:00 AM)
Low46 °F (Jul 16, 6:00 AM)41% (Jul 19, 7:00 PM)29.85 "Hg (Jul 30, 4:00 PM)
Average70 °F73%30.04 "Hg
* Reported Jul 16 6:00 AM — Jul 31 6:00 AM, Rankweil, Weather by CustomWeather, © 2016

Note: Actual official high and low records may vary slightly from our data, if they occured in-between our weather recording intervals... More about our weather records

Advertising

Rankweil Weather History for the Previous 24 Hours

Scroll right to see more
 ConditionsComfort  
Time TempWeatherWind HumidityBarometerVisibility
6:00 AM
Sun, Jul 31
67 °FMild.1 mph72%29.90 "HgN/A
5:00 AM65 °FMild.1 mph79%29.92 "HgN/A
4:00 AM66 °FMild.2 mph75%29.92 "HgN/A
3:00 AM65 °FMild.1 mph79%29.91 "HgN/A
1:00 AM67 °FMild.No wind71%29.91 "HgN/A
12:00 AM69 °FMild.2 mph65%29.90 "HgN/A
11:00 PM
Sat, Jul 30
72 °FMild.2 mph59%29.92 "HgN/A
10:00 PM73 °FMild.2 mph56%29.92 "HgN/A
9:00 PM76 °FMild.3 mph49%29.90 "HgN/A
8:00 PM75 °FMild.3 mph58%29.90 "HgN/A
7:00 PM79 °FWarm.5 mph56%29.88 "HgN/A
6:00 PM80 °FWarm.1 mph66%29.87 "HgN/A
5:00 PM81 °FWarm.2 mph60%29.85 "HgN/A
4:00 PM84 °FWarm.2 mph57%29.85 "HgN/A
3:00 PM84 °FWarm.2 mph56%29.86 "HgN/A
2:00 PM83 °FWarm.3 mph58%29.86 "HgN/A
1:00 PM82 °FWarm.1 mph58%29.87 "HgN/A
12:00 PM81 °FWarm.1 mph61%29.88 "HgN/A
11:00 AM78 °FPassing clouds.1 mph60%29.90 "Hg19 mi
10:00 AM75 °FMild.1 mph65%29.93 "HgN/A
9:00 AM70 °FMild.2 mph74%29.96 "HgN/A
8:00 AM68 °FMild.1 mph76%29.97 "HgN/A
7:00 AM64 °FPassing clouds.1 mph85%29.98 "Hg19 mi
Weather by CustomWeather, © 2016

See weather overviewHow to use our weather pages